| time (UTC) | temp F | wind direction | speed MPH | gust MPH | rain 1hr in | rain 24hr in | rain mn in | humidity % | barometer mb |
| 20260505210053 | 47 | 47 | 9.0 | 26.0 | 0.00 | 0.00 | 0.00 | 44 | 1013.4 |
| 20260505204553 | 46 | 54 | 10.0 | 25.0 | 0.00 | 0.00 | 0.00 | 48 | 1013.6 |
| 20260505203041 | 45 | 82 | 11.0 | 23.0 | 0.00 | 0.00 | 0.00 | 53 | 1013.9 |
| 20260505201550 | 44 | 55 | 6.0 | 25.0 | 0.00 | 0.00 | 0.00 | 55 | 1014.0 |
| 20260505200041 | 42 | 74 | 15.0 | 26.0 | 0.00 | 0.00 | 0.00 | 60 | 1014.3 |
| 20260505194539 | 42 | 54 | 17.0 | 32.0 | 0.00 | 0.00 | 0.00 | 62 | 1014.3 |
| 20260505193038 | 48 | 5 | 1.0 | 15.0 | 0.00 | 0.00 | 0.00 | 44 | 1013.9 |
| 20260505191538 | 45 | 94 | 0.0 | 18.0 | 0.00 | 0.00 | 0.00 | 45 | 1014.0 |
| 20260505190040 | 46 | 47 | 9.0 | 19.0 | 0.00 | 0.00 | 0.00 | 42 | 1014.2 |
| 20260505184542 | 46 | 50 | 11.0 | 21.0 | 0.00 | 0.00 | 0.00 | 41 | 1014.2 |
| 20260505183019 | 46 | 64 | 2.0 | 15.0 | 0.00 | 0.00 | 0.00 | 37 | 1014.0 |
| 20260505181519 | 46 | 71 | 0.0 | 14.0 | 0.00 | 0.00 | 0.00 | 38 | 1014.1 |
| 20260505180006 | 46 | 340 | 0.0 | 10.0 | 0.00 | 0.00 | 0.00 | 39 | 1014.2 |
| 20260505174506 | 46 | 286 | 0.0 | 12.0 | 0.00 | 0.00 | 0.00 | 39 | 1014.3 |
| 20260505173005 | 46 | 40 | 0.0 | 8.0 | 0.00 | 0.00 | 0.00 | 39 | 1014.3 |
| 20260505171505 | 45 | 101 | 0.0 | 8.0 | 0.00 | 0.00 | 0.00 | 40 | 1014.4 |
| 20260505170009 | 44 | 45 | 0.0 | 13.0 | 0.00 | 0.00 | 0.00 | 39 | 1014.5 |
| 20260505164504 | 45 | 42 | 4.0 | 15.0 | 0.00 | 0.00 | 0.00 | 39 | 1014.7 |
| 20260505163009 | 44 | 37 | 3.0 | 14.0 | 0.00 | 0.00 | 0.00 | 39 | 1014.6 |
| 20260505161504 | 45 | 31 | 0.0 | 16.0 | 0.00 | 0.00 | 0.00 | 39 | 1014.7 |
| 20260505153051 | 45 | 15 | 2.0 | 17.0 | 0.00 | 0.00 | 0.00 | 36 | 1014.7 |
| 20260505151555 | 45 | 350 | 2.0 | 15.0 | 0.00 | 0.00 | 0.00 | 35 | 1014.8 |
| 20260505124528 | 37 | 221 | 0.0 | 4.0 | 0.00 | 0.00 | 0.00 | 60 | 1014.1 |
| 20260505123026 | 37 | 240 | 0.0 | 6.0 | 0.00 | 0.00 | 0.00 | 60 | 1014.0 |
| 20260505121531 | 36 | 253 | 0.0 | 0.0 | 0.00 | 0.00 | 0.00 | 62 | 1013.8 |
| 20260505120033 | 37 | 257 | 0.0 | 1.0 | 0.00 | 0.00 | 0.00 | 61 | 1013.6 |
| 20260505114510 | 38 | 91 | 0.0 | 0.0 | 0.00 | 0.00 | 0.00 | 59 | 1013.4 |
| 20260505113007 | 38 | 91 | 0.0 | 6.0 | 0.00 | 0.00 | 0.00 | 59 | 1013.3 |
| 20260505111507 | 38 | 62 | 0.0 | 1.0 | 0.00 | 0.00 | 0.00 | 58 | 1013.3 |
| 20260505101503 | 39 | 56 | 0.0 | 1.0 | 0.00 | 0.00 | 0.00 | 55 | 1013.2 |
| 20260505100041 | 39 | 324 | 0.0 | 0.0 | 0.00 | 0.00 | 0.00 | 54 | 1013.2 |
| 20260505094538 | 40 | 325 | 0.0 | 0.0 | 0.00 | 0.00 | 0.00 | 53 | 1013.3 |
| 20260505093020 | 41 | 330 | 0.0 | 0.0 | 0.00 | 0.00 | 0.00 | 50 | 1013.2 |
| 20260505091525 | 43 | 321 | 0.0 | 0.0 | 0.00 | 0.00 | 0.00 | 45 | 1013.2 |
| 20260505090026 | 44 | 331 | 0.0 | 0.0 | 0.00 | 0.00 | 0.00 | 43 | 1013.1 |
| 20260505084511 | 44 | 346 | 0.0 | 2.0 | 0.00 | 0.00 | 0.00 | 42 | 1013.0 |
| 20260505083009 | 45 | 332 | 0.0 | 0.0 | 0.00 | 0.00 | 0.00 | 39 | 1012.9 |
| 20260505081511 | 45 | 350 | 0.0 | 6.0 | 0.00 | 0.00 | 0.00 | 40 | 1012.8 |
| 20260505080005 | 46 | 12 | 0.0 | 6.0 | 0.00 | 0.00 | 0.00 | 40 | 1012.8 |
| 20260505074503 | 47 | 12 | 0.0 | 10.0 | 0.00 | 0.00 | 0.00 | 39 | 1012.9 |
| 20260505073002 | 47 | 28 | 0.0 | 5.0 | 0.00 | 0.00 | 0.00 | 38 | 1012.8 |
| 20260505071504 | 47 | 355 | 0.0 | 7.0 | 0.00 | 0.00 | 0.00 | 40 | 1012.9 |
| 20260505070007 | 47 | 355 | 0.0 | 7.0 | 0.00 | 0.00 | 0.00 | 46 | 1012.8 |
| 20260505064518 | 47 | 314 | 0.0 | 7.0 | 0.00 | 0.00 | 0.00 | 45 | 1012.7 |
| 20260505063006 | 47 | 326 | 0.0 | 0.0 | 0.00 | 0.00 | 0.00 | 51 | 1012.8 |
| 20260505061510 | 47 | 331 | 0.0 | 2.0 | 0.00 | 0.00 | 0.00 | 52 | 1012.7 |
| 20260505060103 | 47 | 360 | 0.0 | 9.0 | 0.00 | 0.00 | 0.00 | 52 | 1012.6 |
| 20260505054628 | 47 | 20 | 0.0 | 14.0 | 0.00 | 0.00 | 0.00 | 53 | 1012.4 |
| 20260505053107 | 47 | 24 | 1.0 | 14.0 | 0.00 | 0.00 | 0.00 | 53 | 1012.2 |
| 20260505051552 | 48 | 15 | 2.0 | 16.0 | 0.00 | 0.00 | 0.00 | 53 | 1012.0 |
| 20260505041529 | 51 | 336 | 3.0 | 11.0 | 0.00 | 0.00 | 0.00 | 44 | 1011.2 |
| 20260505040028 | 50 | 343 | 4.0 | 16.0 | 0.00 | 0.00 | 0.00 | 45 | 1011.2 |
| 20260505034526 | 50 | 28 | 0.0 | 2.0 | 0.00 | 0.00 | 0.00 | 47 | 1011.1 |
| 20260505033024 | 50 | 5 | 0.0 | 4.0 | 0.00 | 0.00 | 0.00 | 46 | 1010.7 |
| 20260505031538 | 50 | 5 | 0.0 | 11.0 | 0.00 | 0.00 | 0.00 | 46 | 1010.5 |
| 20260505030019 | 50 | 355 | 0.0 | 6.0 | 0.00 | 0.00 | 0.00 | 45 | 1010.3 |
| 20260505024530 | 50 | 19 | 0.0 | 11.0 | 0.00 | 0.00 | 0.00 | 44 | 1010.1 |
| 20260505023003 | 51 | 14 | 2.0 | 11.0 | 0.00 | 0.00 | 0.00 | 43 | 1009.8 |
| 20260505021600 | 51 | 355 | 0.0 | 12.0 | 0.00 | 0.00 | 0.00 | 43 | 1009.7 |
| 20260505020058 | 51 | 32 | 0.0 | 16.0 | 0.00 | 0.00 | 0.00 | 43 | 1009.4 |
| 20260505014605 | 52 | 15 | 0.0 | 12.0 | 0.00 | 0.00 | 0.00 | 42 | 1009.3 |
| 20260505013107 | 52 | 26 | 2.0 | 17.0 | 0.00 | 0.00 | 0.00 | 40 | 1009.1 |
| 20260505011552 | 52 | 44 | 2.0 | 22.0 | 0.00 | 0.00 | 0.00 | 40 | 1008.9 |
| 20260505010049 | 53 | 37 | 5.0 | 18.0 | 0.00 | 0.00 | 0.00 | 39 | 1008.8 |
| 20260505004553 | 53 | 40 | 5.0 | 16.0 | 0.00 | 0.00 | 0.00 | 39 | 1008.6 |
| 20260505003044 | 54 | 21 | 5.0 | 16.0 | 0.00 | 0.00 | 0.00 | 40 | 1008.5 |
| 20260505001528 | 54 | 61 | 4.0 | 17.0 | 0.00 | 0.00 | 0.00 | 39 | 1008.2 |
| 20260505000039 | 54 | 62 | 10.0 | 20.0 | 0.00 | 0.00 | 0.00 | 38 | 1008.1 |
| 20260504234525 | 54 | 30 | 5.0 | 27.0 | 0.00 | 0.00 | 0.00 | 38 | 1007.8 |
| 20260504233024 | 54 | 59 | 9.0 | 21.0 | 0.00 | 0.00 | 0.00 | 39 | 1007.6 |
| 20260504231522 | 54 | 58 | 6.0 | 19.0 | 0.00 | 0.00 | 0.00 | 39 | 1007.5 |
| 20260504230020 | 54 | 31 | 9.0 | 22.0 | 0.00 | 0.00 | 0.00 | 41 | 1007.6 |
| 20260504224517 | 55 | 49 | 9.0 | 21.0 | 0.00 | 0.00 | 0.00 | 40 | 1007.5 |
| 20260504223015 | 55 | 46 | 8.0 | 22.0 | 0.00 | 0.00 | 0.00 | 39 | 1007.4 |
| 20260504221604 | 56 | 51 | 11.0 | 23.0 | 0.00 | 0.00 | 0.00 | 39 | 1007.3 |
| 20260504220058 | 56 | 56 | 10.0 | 26.0 | 0.00 | 0.00 | 0.00 | 38 | 1007.1 |
| 20260504214541 | 57 | 56 | 8.0 | 20.0 | 0.00 | 0.00 | 0.00 | 37 | 1007.0 |
| 20260504213043 | 57 | 60 | 10.0 | 23.0 | 0.00 | 0.00 | 0.00 | 37 | 1007.0 |
| 20260504211538 | 57 | 78 | 14.0 | 24.0 | 0.00 | 0.00 | 0.00 | 37 | 1007.0 |